| time (UTC) | temp C | wind direction | speed KPH | gust KPH | rain 1hr cm | rain 24hr cm | rain mn cm | humidity % | barometer mb |
| 20260901040518 | 27 | 0 | 0.0 | 0.0 | 0.00 | 0.00 | 0.00 | 73 | 1017.9 |
| 20260901040043 | 27 | 0 | 0.0 | 0.0 | 0.00 | 0.00 | 0.00 | 73 | 1018.0 |
| 20260901035521 | 27 | 0 | 0.0 | 1.6 | 0.00 | 0.00 | 0.00 | 73 | 1018.0 |
| 20260901035024 | 27 | 0 | 0.0 | 1.6 | 0.00 | 0.00 | 0.00 | 73 | 1018.0 |
| 20260901034541 | 27 | 0 | 0.0 | 1.6 | 0.00 | 0.00 | 0.00 | 73 | 1017.8 |
| 20260901034022 | 27 | 0 | 0.0 | 1.6 | 0.00 | 0.00 | 0.00 | 73 | 1018.0 |
| 20260901033518 | 27 | 0 | 0.0 | 1.6 | 0.00 | 0.00 | 0.00 | 73 | 1018.0 |
| 20260901033047 | 27 | 0 | 0.0 | 0.0 | 0.00 | 0.00 | 0.00 | 73 | 1018.0 |
| 20260901032520 | 27 | 0 | 0.0 | 0.0 | 0.00 | 0.00 | 0.00 | 72 | 1018.0 |
| 20260901032021 | 28 | 0 | 0.0 | 0.0 | 0.00 | 0.00 | 0.00 | 72 | 1018.1 |
| 20260901031553 | 28 | 0 | 0.0 | 0.0 | 0.00 | 0.00 | 0.00 | 72 | 1018.1 |
| 20260901031030 | 28 | 0 | 0.0 | 1.6 | 0.00 | 0.00 | 0.00 | 71 | 1018.1 |
| 20260901030519 | 28 | 0 | 0.0 | 3.2 | 0.00 | 0.00 | 0.00 | 72 | 1018.2 |
| 20260901030042 | 28 | 0 | 0.0 | 3.2 | 0.00 | 0.00 | 0.00 | 72 | 1018.0 |
| 20260901025521 | 28 | 0 | 0.0 | 3.2 | 0.00 | 0.00 | 0.00 | 71 | 1018.0 |
| 20260901025020 | 28 | 0 | 0.0 | 1.6 | 0.00 | 0.00 | 0.00 | 71 | 1018.2 |
| 20260901024541 | 28 | 0 | 0.0 | 1.6 | 0.00 | 0.00 | 0.00 | 71 | 1018.1 |
| 20260901024019 | 28 | 0 | 0.0 | 1.6 | 0.00 | 0.00 | 0.00 | 71 | 1018.2 |
| 20260901023522 | 28 | 0 | 0.0 | 0.0 | 0.00 | 0.00 | 0.00 | 71 | 1018.2 |
| 20260901023043 | 28 | 0 | 0.0 | 1.6 | 0.00 | 0.00 | 0.00 | 71 | 1018.2 |
| 20260901022528 | 28 | 0 | 0.0 | 1.6 | 0.00 | 0.00 | 0.00 | 71 | 1018.2 |
| 20260901022023 | 28 | 0 | 0.0 | 1.6 | 0.00 | 0.00 | 0.00 | 70 | 1018.0 |
| 20260901021544 | 28 | 0 | 0.0 | 0.0 | 0.00 | 0.00 | 0.00 | 70 | 1018.3 |
| 20260901021018 | 28 | 0 | 0.0 | 0.0 | 0.00 | 0.00 | 0.00 | 70 | 1018.1 |
| 20260901020521 | 28 | 0 | 0.0 | 0.0 | 0.00 | 0.00 | 0.00 | 70 | 1018.0 |
| 20260901020043 | 28 | 0 | 0.0 | 0.0 | 0.00 | 0.00 | 0.00 | 69 | 1018.1 |
| 20260901015520 | 28 | 0 | 0.0 | 0.0 | 0.00 | 0.00 | 0.00 | 69 | 1017.9 |
| 20260901015018 | 29 | 0 | 0.0 | 0.0 | 0.00 | 0.00 | 0.00 | 69 | 1017.7 |
| 20260901014542 | 29 | 0 | 0.0 | 0.0 | 0.00 | 0.00 | 0.00 | 68 | 1017.8 |
| 20260901014029 | 29 | 0 | 0.0 | 0.0 | 0.00 | 0.00 | 0.00 | 67 | 1017.6 |
| 20260901013526 | 29 | 0 | 0.0 | 0.0 | 0.00 | 0.00 | 0.00 | 67 | 1017.6 |
| 20260901013050 | 30 | 0 | 0.0 | 0.0 | 0.00 | 0.00 | 0.00 | 66 | 1017.5 |
| 20260901012518 | 30 | 0 | 0.0 | 0.0 | 0.00 | 0.00 | 0.00 | 66 | 1017.5 |
| 20260901012020 | 30 | 0 | 0.0 | 0.0 | 0.00 | 0.00 | 0.00 | 65 | 1017.4 |
| 20260901011541 | 30 | 0 | 0.0 | 0.0 | 0.00 | 0.00 | 0.00 | 65 | 1017.3 |
| 20260901011020 | 30 | 0 | 0.0 | 0.0 | 0.00 | 0.00 | 0.00 | 64 | 1017.2 |
| 20260901010518 | 30 | 0 | 0.0 | 0.0 | 0.00 | 0.00 | 0.00 | 64 | 1017.2 |
| 20260901010041 | 30 | 0 | 0.0 | 0.0 | 0.00 | 0.00 | 0.00 | 63 | 1017.3 |
| 20260901005518 | 31 | 0 | 0.0 | 0.0 | 0.00 | 0.00 | 0.00 | 63 | 1017.2 |
| 20260901005022 | 31 | 0 | 0.0 | 0.0 | 0.00 | 0.00 | 0.00 | 62 | 1017.1 |
| 20260901004545 | 31 | 0 | 0.0 | 0.0 | 0.00 | 0.00 | 0.00 | 61 | 1016.9 |
| 20260901004018 | 31 | 0 | 0.0 | 0.0 | 0.00 | 0.00 | 0.00 | 60 | 1016.9 |
| 20260901003520 | 31 | 0 | 0.0 | 0.0 | 0.00 | 0.00 | 0.00 | 59 | 1017.1 |
| 20260901003044 | 32 | 0 | 0.0 | 0.0 | 0.00 | 0.00 | 0.00 | 59 | 1017.0 |
| 20260901002522 | 32 | 0 | 0.0 | 0.0 | 0.00 | 0.00 | 0.00 | 59 | 1017.0 |
| 20260901002024 | 32 | 0 | 0.0 | 1.6 | 0.00 | 0.00 | 0.00 | 57 | 1017.1 |
| 20260901001542 | 32 | 0 | 0.0 | 1.6 | 0.00 | 0.00 | 0.00 | 57 | 1016.8 |
| 20260901001021 | 32 | 0 | 0.0 | 1.6 | 0.00 | 0.00 | 0.00 | 56 | 1016.9 |
| 20260901000523 | 32 | 0 | 0.0 | 1.6 | 0.00 | 0.00 | 0.00 | 56 | 1017.0 |
| 20260901000044 | 32 | 0 | 0.0 | 1.6 | 0.00 | 0.00 | 0.00 | 56 | 1016.8 |
| 20260831235520 | 32 | 0 | 0.0 | 3.2 | 0.00 | 0.00 | 0.00 | 56 | 1016.8 |
| 20260831235025 | 32 | 0 | 0.0 | 3.2 | 0.00 | 0.00 | 0.00 | 56 | 1016.8 |
| 20260831234543 | 32 | 0 | 0.0 | 3.2 | 0.00 | 0.00 | 0.00 | 56 | 1016.8 |
| 20260831234026 | 32 | 0 | 0.0 | 1.6 | 0.00 | 0.00 | 0.00 | 56 | 1016.9 |
| 20260831233524 | 32 | 0 | 0.0 | 1.6 | 0.00 | 0.00 | 0.00 | 58 | 1016.8 |
| 20260831233042 | 32 | 0 | 0.0 | 0.0 | 0.00 | 0.00 | 0.00 | 60 | 1016.7 |
| 20260831232519 | 32 | 0 | 0.0 | 0.0 | 0.00 | 0.00 | 0.00 | 60 | 1016.7 |
| 20260831232020 | 32 | 0 | 0.0 | 0.0 | 0.00 | 0.00 | 0.00 | 60 | 1016.7 |
| 20260831231541 | 32 | 0 | 0.0 | 1.6 | 0.00 | 0.00 | 0.00 | 60 | 1016.9 |
| 20260831231020 | 32 | 0 | 0.0 | 1.6 | 0.00 | 0.00 | 0.00 | 59 | 1016.8 |
| 20260831230519 | 32 | 0 | 0.0 | 0.0 | 0.00 | 0.00 | 0.00 | 57 | 1016.8 |
| 20260831230059 | 33 | 0 | 0.0 | 0.0 | 0.00 | 0.00 | 0.00 | 57 | 1016.9 |
| 20260831225521 | 33 | 0 | 0.0 | 0.0 | 0.00 | 0.00 | 0.00 | 56 | 1016.8 |
| 20260831225030 | 33 | 0 | 0.0 | 0.0 | 0.00 | 0.00 | 0.00 | 54 | 1017.0 |
| 20260831224542 | 33 | 0 | 0.0 | 0.0 | 0.00 | 0.00 | 0.00 | 54 | 1016.9 |
| 20260831224020 | 33 | 0 | 0.0 | 1.6 | 0.00 | 0.00 | 0.00 | 52 | 1017.0 |
| 20260831223520 | 33 | 0 | 0.0 | 4.8 | 0.00 | 0.00 | 0.00 | 52 | 1017.1 |
| 20260831223039 | 34 | 30 | 0.0 | 4.8 | 0.00 | 0.00 | 0.00 | 52 | 1017.1 |
| 20260831222521 | 34 | 0 | 0.0 | 4.8 | 0.00 | 0.00 | 0.00 | 51 | 1017.0 |
| 20260831222026 | 34 | 0 | 0.0 | 4.8 | 0.00 | 0.00 | 0.00 | 50 | 1017.0 |
| 20260831221548 | 35 | 0 | 0.0 | 6.4 | 0.00 | 0.00 | 0.00 | 50 | 1017.1 |
| 20260831221024 | 35 | 0 | 0.0 | 6.4 | 0.00 | 0.00 | 0.00 | 50 | 1017.0 |
| 20260831220522 | 35 | 0 | 1.6 | 6.4 | 0.00 | 0.00 | 0.00 | 50 | 1017.1 |
| 20260831220046 | 35 | 0 | 1.6 | 6.4 | 0.00 | 0.00 | 0.00 | 50 | 1017.0 |
| 20260831215522 | 35 | 49 | 0.0 | 3.2 | 0.00 | 0.00 | 0.00 | 51 | 1017.0 |
| 20260831215021 | 34 | 54 | 0.0 | 1.6 | 0.00 | 0.00 | 0.00 | 51 | 1017.0 |
| 20260831214546 | 34 | 54 | 0.0 | 4.8 | 0.00 | 0.00 | 0.00 | 51 | 1017.1 |
| 20260831214023 | 34 | 0 | 0.0 | 4.8 | 0.00 | 0.00 | 0.00 | 50 | 1017.1 |
| 20260831213520 | 34 | 55 | 0.0 | 9.7 | 0.00 | 0.00 | 0.00 | 51 | 1017.3 |
| 20260831213044 | 34 | 0 | 0.0 | 9.7 | 0.00 | 0.00 | 0.00 | 51 | 1017.2 |
| 20260831212527 | 35 | 360 | 1.6 | 9.7 | 0.00 | 0.00 | 0.00 | 49 | 1017.4 |
| 20260831212025 | 35 | 0 | 1.6 | 11.3 | 0.00 | 0.00 | 0.00 | 50 | 1017.4 |
| 20260831211550 | 35 | 29 | 3.2 | 12.9 | 0.00 | 0.00 | 0.00 | 49 | 1017.4 |
| 20260831211021 | 35 | 160 | 4.8 | 12.9 | 0.00 | 0.00 | 0.00 | 49 | 1017.3 |
| 20260831210522 | 35 | 0 | 3.2 | 9.7 | 0.00 | 0.00 | 0.00 | 49 | 1017.4 |
| 20260831210042 | 35 | 0 | 1.6 | 4.8 | 0.00 | 0.00 | 0.00 | 50 | 1017.4 |
| 20260831205520 | 35 | 0 | 0.0 | 4.8 | 0.00 | 0.00 | 0.00 | 50 | 1017.3 |
| 20260831205020 | 35 | 327 | 1.6 | 4.8 | 0.00 | 0.00 | 0.00 | 48 | 1017.3 |
| 20260831204542 | 35 | 0 | 0.0 | 4.8 | 0.00 | 0.00 | 0.00 | 50 | 1017.5 |
| 20260831204026 | 35 | 0 | 0.0 | 4.8 | 0.00 | 0.00 | 0.00 | 49 | 1017.5 |
| 20260831203524 | 35 | 0 | 0.0 | 8.0 | 0.00 | 0.00 | 0.00 | 49 | 1017.6 |
| 20260831203044 | 35 | 53 | 0.0 | 8.0 | 0.00 | 0.00 | 0.00 | 48 | 1017.6 |
| 20260831202522 | 36 | 42 | 0.0 | 8.0 | 0.00 | 0.00 | 0.00 | 48 | 1017.6 |
| 20260831202023 | 36 | 39 | 0.0 | 9.7 | 0.00 | 0.00 | 0.00 | 49 | 1017.7 |
| 20260831201541 | 36 | 261 | 3.2 | 9.7 | 0.00 | 0.00 | 0.00 | 52 | 1017.6 |
| 20260831201021 | 35 | 244 | 0.0 | 8.0 | 0.00 | 0.00 | 0.00 | 49 | 1017.7 |
| 20260831200521 | 35 | 352 | 3.2 | 8.0 | 0.00 | 0.00 | 0.00 | 49 | 1017.8 |
| 20260831200041 | 35 | 325 | 0.0 | 8.0 | 0.00 | 0.00 | 0.00 | 50 | 1017.9 |
| 20260831195519 | 35 | 0 | 0.0 | 8.0 | 0.00 | 0.00 | 0.00 | 48 | 1017.9 |
| 20260831195019 | 36 | 0 | 1.6 | 8.0 | 0.00 | 0.00 | 0.00 | 48 | 1018.1 |
| 20260831194618 | 36 | 0 | 0.0 | 6.4 | 0.00 | 0.00 | 0.00 | 48 | 1018.0 |
| 20260831194027 | 36 | 235 | 0.0 | 6.4 | 0.00 | 0.00 | 0.00 | 51 | 1018.1 |
| 20260831193520 | 36 | 0 | 1.6 | 6.4 | 0.00 | 0.00 | 0.00 | 48 | 1018.2 |
| 20260831193043 | 36 | 0 | 0.0 | 6.4 | 0.00 | 0.00 | 0.00 | 49 | 1018.3 |
| 20260831192519 | 36 | 88 | 1.6 | 6.4 | 0.00 | 0.00 | 0.00 | 49 | 1018.2 |
| 20260831192019 | 35 | 155 | 1.6 | 6.4 | 0.00 | 0.00 | 0.00 | 52 | 1018.2 |
| 20260831191538 | 35 | 0 | 0.0 | 8.0 | 0.00 | 0.00 | 0.00 | 55 | 1018.4 |
| 20260831191020 | 35 | 0 | 1.6 | 8.0 | 0.00 | 0.00 | 0.00 | 51 | 1018.4 |
| 20260831190520 | 35 | 9 | 0.0 | 8.0 | 0.00 | 0.00 | 0.00 | 48 | 1018.5 |
| 20260831190041 | 35 | 0 | 0.0 | 6.4 | 0.00 | 0.00 | 0.00 | 48 | 1018.6 |
| 20260831185518 | 35 | 0 | 1.6 | 6.4 | 0.00 | 0.00 | 0.00 | 50 | 1018.7 |
| 20260831185019 | 35 | 127 | 0.0 | 9.7 | 0.00 | 0.00 | 0.00 | 52 | 1018.6 |
| 20260831184546 | 35 | 0 | 1.6 | 9.7 | 0.00 | 0.00 | 0.00 | 51 | 1018.8 |
| 20260831184021 | 35 | 78 | 0.0 | 6.4 | 0.00 | 0.00 | 0.00 | 53 | 1018.8 |
| 20260831183521 | 35 | 0 | 0.0 | 8.0 | 0.00 | 0.00 | 0.00 | 53 | 1018.9 |
| 20260831183046 | 35 | 0 | 0.0 | 9.7 | 0.00 | 0.00 | 0.00 | 60 | 1019.1 |
| 20260831182518 | 35 | 0 | 1.6 | 9.7 | 0.00 | 0.00 | 0.00 | 52 | 1019.0 |
| 20260831182021 | 35 | 71 | 1.6 | 8.0 | 0.00 | 0.00 | 0.00 | 56 | 1019.3 |
| 20260831181540 | 35 | 346 | 0.0 | 8.0 | 0.00 | 0.00 | 0.00 | 54 | 1019.3 |
| 20260831181020 | 35 | 168 | 1.6 | 8.0 | 0.00 | 0.00 | 0.00 | 58 | 1019.5 |
| 20260831180519 | 35 | 0 | 0.0 | 6.4 | 0.00 | 0.00 | 0.00 | 53 | 1019.6 |
| 20260831180041 | 35 | 0 | 0.0 | 6.4 | 0.00 | 0.00 | 0.00 | 53 | 1019.6 |
| 20260831175523 | 36 | 338 | 1.6 | 6.4 | 0.00 | 0.00 | 0.00 | 54 | 1019.6 |
| 20260831175024 | 36 | 183 | 1.6 | 6.4 | 0.00 | 0.00 | 0.00 | 55 | 1019.7 |
| 20260831174550 | 35 | 210 | 0.0 | 8.0 | 0.00 | 0.00 | 0.00 | 59 | 1019.7 |
| 20260831174023 | 35 | 197 | 3.2 | 8.0 | 0.00 | 0.00 | 0.00 | 60 | 1019.9 |
| 20260831173518 | 34 | 158 | 1.6 | 6.4 | 0.00 | 0.00 | 0.00 | 59 | 1019.9 |
| 20260831173045 | 33 | 0 | 0.0 | 6.4 | 0.00 | 0.00 | 0.00 | 58 | 1019.9 |
| 20260831172520 | 33 | 0 | 0.0 | 8.0 | 0.00 | 0.00 | 0.00 | 57 | 1020.1 |
| 20260831172020 | 33 | 0 | 3.2 | 8.0 | 0.00 | 0.00 | 0.00 | 55 | 1020.2 |
| 20260831171543 | 34 | 92 | 1.6 | 6.4 | 0.00 | 0.00 | 0.00 | 57 | 1020.2 |
| 20260831171021 | 35 | 0 | 1.6 | 8.0 | 0.00 | 0.00 | 0.00 | 55 | 1020.2 |
| 20260831170522 | 35 | 0 | 0.0 | 8.0 | 0.00 | 0.00 | 0.00 | 60 | 1020.2 |
| 20260831170111 | 34 | 162 | 1.6 | 8.0 | 0.00 | 0.00 | 0.00 | 59 | 1020.3 |
| 20260831165522 | 34 | 86 | 1.6 | 6.4 | 0.00 | 0.00 | 0.00 | 58 | 1020.3 |
| 20260831165022 | 34 | 44 | 1.6 | 8.0 | 0.00 | 0.00 | 0.00 | 56 | 1020.4 |
| 20260831164539 | 35 | 131 | 0.0 | 8.0 | 0.00 | 0.00 | 0.00 | 58 | 1020.4 |
| 20260831164018 | 35 | 14 | 1.6 | 8.0 | 0.00 | 0.00 | 0.00 | 53 | 1020.3 |
| 20260831163518 | 35 | 0 | 0.0 | 6.4 | 0.00 | 0.00 | 0.00 | 58 | 1020.4 |
| 20260831163044 | 35 | 208 | 1.6 | 6.4 | 0.00 | 0.00 | 0.00 | 57 | 1020.5 |
| 20260831162523 | 35 | 0 | 0.0 | 8.0 | 0.00 | 0.00 | 0.00 | 60 | 1020.5 |
| 20260831162020 | 35 | 171 | 0.0 | 8.0 | 0.00 | 0.00 | 0.00 | 57 | 1020.7 |
| 20260831161541 | 35 | 113 | 1.6 | 8.0 | 0.00 | 0.00 | 0.00 | 56 | 1020.8 |
| 20260831161023 | 34 | 0 | 1.6 | 8.0 | 0.00 | 0.00 | 0.00 | 60 | 1020.8 |
| 20260831160522 | 34 | 0 | 0.0 | 12.9 | 0.00 | 0.00 | 0.00 | 58 | 1020.8 |
| 20260831160042 | 33 | 194 | 1.6 | 12.9 | 0.00 | 0.00 | 0.00 | 60 | 1020.9 |
| 20260831155521 | 33 | 269 | 3.2 | 12.9 | 0.00 | 0.00 | 0.00 | 60 | 1020.8 |
| 20260831155021 | 33 | 0 | 0.0 | 8.0 | 0.00 | 0.00 | 0.00 | 61 | 1020.9 |
| 20260831154616 | 33 | 44 | 0.0 | 8.0 | 0.00 | 0.00 | 0.00 | 64 | 1020.9 |
| 20260831154018 | 33 | 0 | 1.6 | 6.4 | 0.00 | 0.00 | 0.00 | 63 | 1020.8 |
| 20260831153520 | 32 | 0 | 0.0 | 6.4 | 0.00 | 0.00 | 0.00 | 65 | 1020.8 |
| 20260831153041 | 32 | 26 | 1.6 | 6.4 | 0.00 | 0.00 | 0.00 | 63 | 1020.8 |
| 20260831152522 | 32 | 105 | 0.0 | 6.4 | 0.00 | 0.00 | 0.00 | 63 | 1020.8 |
| 20260831152024 | 32 | 146 | 0.0 | 6.4 | 0.00 | 0.00 | 0.00 | 63 | 1020.8 |
| 20260831151541 | 32 | 328 | 1.6 | 4.8 | 0.00 | 0.00 | 0.00 | 63 | 1020.7 |
| 20260831151021 | 32 | 194 | 0.0 | 6.4 | 0.00 | 0.00 | 0.00 | 66 | 1020.8 |
| 20260831150520 | 32 | 0 | 0.0 | 6.4 | 0.00 | 0.00 | 0.00 | 66 | 1020.8 |
| 20260831150041 | 32 | 0 | 0.0 | 6.4 | 0.00 | 0.00 | 0.00 | 68 | 1020.7 |
| 20260831145518 | 32 | 0 | 0.0 | 6.4 | 0.00 | 0.00 | 0.00 | 67 | 1020.8 |
| 20260831145020 | 31 | 0 | 0.0 | 4.8 | 0.00 | 0.00 | 0.00 | 67 | 1020.7 |
| 20260831144540 | 31 | 0 | 0.0 | 4.8 | 0.00 | 0.00 | 0.00 | 67 | 1020.8 |
| 20260831144018 | 31 | 0 | 0.0 | 4.8 | 0.00 | 0.00 | 0.00 | 67 | 1020.8 |
| 20260831143517 | 31 | 0 | 1.6 | 4.8 | 0.00 | 0.00 | 0.00 | 70 | 1020.8 |
| 20260831143043 | 31 | 0 | 0.0 | 3.2 | 0.00 | 0.00 | 0.00 | 69 | 1020.9 |
| 20260831142518 | 31 | 0 | 0.0 | 3.2 | 0.00 | 0.00 | 0.00 | 68 | 1020.7 |
| 20260831142024 | 30 | 0 | 0.0 | 3.2 | 0.00 | 0.00 | 0.00 | 71 | 1020.8 |
| 20260831141540 | 30 | 0 | 0.0 | 3.2 | 0.00 | 0.00 | 0.00 | 71 | 1020.8 |
| 20260831141019 | 30 | 0 | 0.0 | 3.2 | 0.00 | 0.00 | 0.00 | 70 | 1020.7 |
| 20260831140519 | 30 | 0 | 0.0 | 4.8 | 0.00 | 0.00 | 0.00 | 71 | 1020.8 |
| 20260831140041 | 29 | 0 | 0.0 | 4.8 | 0.00 | 0.00 | 0.00 | 72 | 1020.8 |
| 20260831135520 | 29 | 0 | 0.0 | 3.2 | 0.00 | 0.00 | 0.00 | 72 | 1020.9 |
| 20260831135018 | 28 | 43 | 0.0 | 3.2 | 0.00 | 0.00 | 0.00 | 73 | 1021.0 |
| 20260831134539 | 28 | 0 | 0.0 | 3.2 | 0.00 | 0.00 | 0.00 | 73 | 1020.9 |
| 20260831134019 | 28 | 0 | 0.0 | 4.8 | 0.00 | 0.00 | 0.00 | 74 | 1020.9 |
| 20260831133520 | 27 | 0 | 0.0 | 4.8 | 0.00 | 0.00 | 0.00 | 74 | 1021.0 |
| 20260831133041 | 27 | 0 | 0.0 | 4.8 | 0.00 | 0.00 | 0.00 | 73 | 1020.9 |
| 20260831132518 | 27 | 0 | 0.0 | 3.2 | 0.00 | 0.00 | 0.00 | 72 | 1020.9 |
| 20260831132020 | 26 | 0 | 0.0 | 3.2 | 0.00 | 0.00 | 0.00 | 70 | 1020.9 |
| 20260831131542 | 26 | 0 | 0.0 | 3.2 | 0.00 | 0.00 | 0.00 | 67 | 1020.8 |
| 20260831131021 | 25 | 0 | 0.0 | 3.2 | 0.00 | 0.00 | 0.00 | 65 | 1020.7 |
| 20260831130519 | 25 | 0 | 0.0 | 1.6 | 0.00 | 0.00 | 0.00 | 63 | 1020.7 |
| 20260831130044 | 25 | 0 | 0.0 | 1.6 | 0.00 | 0.00 | 0.00 | 61 | 1020.8 |
| 20260831125518 | 25 | 0 | 0.0 | 1.6 | 0.00 | 0.00 | 0.00 | 57 | 1020.6 |
| 20260831125021 | 25 | 0 | 0.0 | 4.8 | 0.00 | 0.00 | 0.00 | 56 | 1020.4 |
| 20260831124542 | 25 | 0 | 0.0 | 4.8 | 0.00 | 0.00 | 0.00 | 52 | 1020.3 |
| 20260831124025 | 25 | 0 | 0.0 | 4.8 | 0.00 | 0.00 | 0.00 | 50 | 1020.4 |
| 20260831123520 | 24 | 38 | 0.0 | 3.2 | 0.00 | 0.00 | 0.00 | 47 | 1020.1 |
| 20260831123045 | 24 | 48 | 0.0 | 1.6 | 0.00 | 0.00 | 0.00 | 43 | 1020.1 |
| 20260831122524 | 24 | 0 | 0.0 | 1.6 | 0.00 | 0.00 | 0.00 | 40 | 1020.0 |
| 20260831122018 | 23 | 0 | 0.0 | 1.6 | 0.00 | 0.00 | 0.00 | 38 | 1019.8 |
| 20260831121540 | 23 | 0 | 0.0 | 1.6 | 0.00 | 0.00 | 0.00 | 39 | 1019.6 |
| 20260831121021 | 23 | 0 | 0.0 | 1.6 | 0.00 | 0.00 | 0.00 | 38 | 1019.7 |
| 20260831120522 | 23 | 0 | 0.0 | 1.6 | 0.00 | 0.00 | 0.00 | 38 | 1019.5 |
| 20260831120042 | 23 | 0 | 0.0 | 1.6 | 0.00 | 0.00 | 0.00 | 40 | 1019.5 |
| 20260831115517 | 23 | 0 | 0.0 | 0.0 | 0.00 | 0.00 | 0.00 | 40 | 1019.5 |
| 20260831115020 | 23 | 0 | 0.0 | 0.0 | 0.00 | 0.00 | 0.00 | 43 | 1019.4 |
| 20260831114544 | 23 | 0 | 0.0 | 0.0 | 0.00 | 0.00 | 0.00 | 43 | 1019.2 |
| 20260831114029 | 23 | 0 | 0.0 | 0.0 | 0.00 | 0.00 | 0.00 | 43 | 1019.2 |
| 20260831113524 | 23 | 0 | 0.0 | 0.0 | 0.00 | 0.00 | 0.00 | 43 | 1019.2 |
| 20260831113051 | 23 | 0 | 0.0 | 0.0 | 0.00 | 0.00 | 0.00 | 44 | 1019.2 |
| 20260831112522 | 23 | 0 | 0.0 | 0.0 | 0.00 | 0.00 | 0.00 | 46 | 1019.2 |
| 20260831112018 | 23 | 0 | 0.0 | 0.0 | 0.00 | 0.00 | 0.00 | 47 | 1019.2 |
| 20260831111541 | 23 | 0 | 0.0 | 0.0 | 0.00 | 0.00 | 0.00 | 49 | 1019.1 |
| 20260831111020 | 23 | 0 | 0.0 | 0.0 | 0.00 | 0.00 | 0.00 | 50 | 1018.9 |
| 20260831110520 | 23 | 0 | 0.0 | 0.0 | 0.00 | 0.00 | 0.00 | 50 | 1018.9 |
| 20260831110039 | 24 | 0 | 0.0 | 0.0 | 0.00 | 0.00 | 0.00 | 50 | 1018.9 |
| 20260831105525 | 24 | 0 | 0.0 | 0.0 | 0.00 | 0.00 | 0.00 | 52 | 1019.1 |
| 20260831105022 | 24 | 0 | 0.0 | 0.0 | 0.00 | 0.00 | 0.00 | 52 | 1018.9 |
| 20260831104545 | 24 | 0 | 0.0 | 0.0 | 0.00 | 0.00 | 0.00 | 52 | 1018.7 |
| 20260831104021 | 24 | 0 | 0.0 | 0.0 | 0.00 | 0.00 | 0.00 | 53 | 1018.8 |
| 20260831103517 | 24 | 0 | 0.0 | 1.6 | 0.00 | 0.00 | 0.00 | 54 | 1018.8 |
| 20260831103056 | 24 | 0 | 0.0 | 1.6 | 0.00 | 0.00 | 0.00 | 53 | 1018.8 |
| 20260831102523 | 24 | 0 | 0.0 | 1.6 | 0.00 | 0.00 | 0.00 | 53 | 1018.7 |
| 20260831102025 | 24 | 0 | 0.0 | 1.6 | 0.00 | 0.00 | 0.00 | 53 | 1018.7 |
| 20260831101541 | 24 | 0 | 0.0 | 0.0 | 0.00 | 0.00 | 0.00 | 52 | 1018.7 |
| 20260831101024 | 24 | 0 | 0.0 | 0.0 | 0.00 | 0.00 | 0.00 | 53 | 1018.6 |
| 20260831100518 | 24 | 0 | 0.0 | 0.0 | 0.00 | 0.00 | 0.00 | 54 | 1018.7 |
| 20260831100043 | 24 | 0 | 0.0 | 0.0 | 0.00 | 0.00 | 0.00 | 54 | 1018.5 |
| 20260831095522 | 24 | 0 | 0.0 | 0.0 | 0.00 | 0.00 | 0.00 | 54 | 1018.5 |
| 20260831095022 | 24 | 0 | 0.0 | 0.0 | 0.00 | 0.00 | 0.00 | 54 | 1018.4 |
| 20260831094541 | 24 | 0 | 0.0 | 0.0 | 0.00 | 0.00 | 0.00 | 55 | 1018.5 |
| 20260831094018 | 24 | 0 | 0.0 | 0.0 | 0.00 | 0.00 | 0.00 | 55 | 1018.5 |
| 20260831093520 | 24 | 0 | 0.0 | 0.0 | 0.00 | 0.00 | 0.00 | 54 | 1018.3 |
| 20260831093048 | 24 | 0 | 0.0 | 1.6 | 0.00 | 0.00 | 0.00 | 54 | 1018.5 |
| 20260831092519 | 24 | 0 | 0.0 | 1.6 | 0.00 | 0.00 | 0.00 | 54 | 1018.6 |
| 20260831092022 | 24 | 0 | 0.0 | 0.0 | 0.00 | 0.00 | 0.00 | 54 | 1018.4 |
| 20260831091543 | 24 | 0 | 0.0 | 0.0 | 0.00 | 0.00 | 0.00 | 55 | 1018.4 |
| 20260831091021 | 24 | 0 | 0.0 | 0.0 | 0.00 | 0.00 | 0.00 | 56 | 1018.3 |
| 20260831090521 | 24 | 0 | 0.0 | 0.0 | 0.00 | 0.00 | 0.00 | 58 | 1018.2 |
| 20260831090055 | 24 | 0 | 0.0 | 0.0 | 0.00 | 0.00 | 0.00 | 57 | 1018.2 |
| 20260831085521 | 24 | 0 | 0.0 | 0.0 | 0.00 | 0.00 | 0.00 | 58 | 1018.2 |
| 20260831085024 | 24 | 0 | 0.0 | 0.0 | 0.00 | 0.00 | 0.00 | 58 | 1018.2 |
| 20260831084545 | 24 | 0 | 0.0 | 0.0 | 0.00 | 0.00 | 0.00 | 58 | 1018.3 |
| 20260831084025 | 24 | 0 | 0.0 | 0.0 | 0.00 | 0.00 | 0.00 | 59 | 1018.1 |
| 20260831083525 | 24 | 0 | 0.0 | 0.0 | 0.00 | 0.00 | 0.00 | 61 | 1018.1 |
| 20260831083045 | 24 | 0 | 0.0 | 0.0 | 0.00 | 0.00 | 0.00 | 61 | 1018.0 |
| 20260831082521 | 24 | 0 | 0.0 | 0.0 | 0.00 | 0.00 | 0.00 | 61 | 1018.0 |
| 20260831082021 | 25 | 0 | 0.0 | 0.0 | 0.00 | 0.00 | 0.00 | 61 | 1017.9 |
| 20260831081541 | 25 | 0 | 0.0 | 0.0 | 0.00 | 0.00 | 0.00 | 63 | 1017.9 |
| 20260831081021 | 25 | 0 | 0.0 | 0.0 | 0.00 | 0.00 | 0.00 | 62 | 1017.8 |
| 20260831080521 | 25 | 0 | 0.0 | 0.0 | 0.00 | 0.00 | 0.00 | 61 | 1017.9 |
| 20260831080055 | 25 | 0 | 0.0 | 0.0 | 0.00 | 0.00 | 0.00 | 61 | 1017.9 |
| 20260831075520 | 25 | 0 | 0.0 | 0.0 | 0.00 | 0.00 | 0.00 | 61 | 1017.9 |
| 20260831075017 | 25 | 0 | 0.0 | 0.0 | 0.00 | 0.00 | 0.00 | 63 | 1018.0 |
| 20260831074542 | 25 | 0 | 0.0 | 0.0 | 0.00 | 0.00 | 0.00 | 62 | 1018.1 |
| 20260831074024 | 25 | 0 | 0.0 | 0.0 | 0.00 | 0.00 | 0.00 | 63 | 1018.0 |
| 20260831073524 | 25 | 0 | 0.0 | 0.0 | 0.00 | 0.00 | 0.00 | 64 | 1018.1 |
| 20260831073045 | 25 | 0 | 0.0 | 0.0 | 0.00 | 0.00 | 0.00 | 64 | 1018.0 |
| 20260831072520 | 25 | 0 | 0.0 | 0.0 | 0.00 | 0.00 | 0.00 | 63 | 1018.0 |
| 20260831072025 | 25 | 0 | 0.0 | 0.0 | 0.00 | 0.00 | 0.00 | 64 | 1018.0 |
| 20260831071542 | 25 | 0 | 0.0 | 0.0 | 0.00 | 0.00 | 0.00 | 64 | 1017.9 |
| 20260831071018 | 25 | 0 | 0.0 | 0.0 | 0.00 | 0.00 | 0.00 | 63 | 1018.0 |
| 20260831070520 | 25 | 0 | 0.0 | 0.0 | 0.00 | 0.00 | 0.00 | 65 | 1017.9 |
| 20260831070047 | 25 | 0 | 0.0 | 0.0 | 0.00 | 0.00 | 0.00 | 66 | 1017.8 |
| 20260831065519 | 25 | 0 | 0.0 | 0.0 | 0.00 | 0.00 | 0.00 | 66 | 1017.9 |
| 20260831065025 | 25 | 0 | 0.0 | 0.0 | 0.00 | 0.00 | 0.00 | 67 | 1017.9 |
| 20260831064545 | 25 | 0 | 0.0 | 0.0 | 0.00 | 0.00 | 0.00 | 68 | 1017.8 |
| 20260831064022 | 25 | 0 | 0.0 | 0.0 | 0.00 | 0.00 | 0.00 | 69 | 1017.9 |
| 20260831063521 | 25 | 0 | 0.0 | 0.0 | 0.00 | 0.00 | 0.00 | 69 | 1018.0 |
| 20260831063042 | 25 | 0 | 0.0 | 0.0 | 0.00 | 0.00 | 0.00 | 69 | 1018.1 |
| 20260831062524 | 25 | 0 | 0.0 | 0.0 | 0.00 | 0.00 | 0.00 | 70 | 1018.0 |
| 20260831062022 | 25 | 0 | 0.0 | 0.0 | 0.00 | 0.00 | 0.00 | 71 | 1018.1 |
| 20260831061542 | 25 | 0 | 0.0 | 0.0 | 0.00 | 0.00 | 0.00 | 71 | 1018.1 |
| 20260831061024 | 25 | 0 | 0.0 | 0.0 | 0.00 | 0.00 | 0.00 | 72 | 1018.1 |
| 20260831060521 | 25 | 0 | 0.0 | 0.0 | 0.00 | 0.00 | 0.00 | 72 | 1018.2 |
| 20260831060044 | 25 | 0 | 0.0 | 0.0 | 0.00 | 0.00 | 0.00 | 72 | 1018.2 |
| 20260831055522 | 25 | 0 | 0.0 | 0.0 | 0.00 | 0.00 | 0.00 | 72 | 1018.3 |
| 20260831055022 | 26 | 0 | 0.0 | 0.0 | 0.00 | 0.00 | 0.00 | 73 | 1018.3 |
| 20260831054543 | 26 | 0 | 0.0 | 0.0 | 0.00 | 0.00 | 0.00 | 73 | 1018.2 |
| 20260831054022 | 26 | 0 | 0.0 | 0.0 | 0.00 | 0.00 | 0.00 | 73 | 1018.1 |
| 20260831053521 | 26 | 0 | 0.0 | 0.0 | 0.00 | 0.00 | 0.00 | 74 | 1018.3 |
| 20260831053042 | 26 | 0 | 0.0 | 0.0 | 0.00 | 0.00 | 0.00 | 74 | 1018.4 |
| 20260831052520 | 26 | 0 | 0.0 | 0.0 | 0.00 | 0.00 | 0.00 | 74 | 1018.3 |
| 20260831052025 | 26 | 0 | 0.0 | 0.0 | 0.00 | 0.00 | 0.00 | 74 | 1018.4 |
| 20260831051546 | 26 | 0 | 0.0 | 0.0 | 0.00 | 0.00 | 0.00 | 74 | 1018.2 |
| 20260831051023 | 26 | 0 | 0.0 | 0.0 | 0.00 | 0.00 | 0.00 | 74 | 1018.2 |
| 20260831050522 | 26 | 0 | 0.0 | 0.0 | 0.00 | 0.00 | 0.00 | 74 | 1018.1 |
| 20260831050045 | 26 | 0 | 0.0 | 0.0 | 0.00 | 0.00 | 0.00 | 74 | 1018.2 |
| 20260831045518 | 26 | 0 | 0.0 | 0.0 | 0.00 | 0.00 | 0.00 | 74 | 1018.2 |
| 20260831045021 | 26 | 0 | 0.0 | 0.0 | 0.00 | 0.00 | 0.00 | 74 | 1018.1 |
| 20260831044541 | 26 | 0 | 0.0 | 0.0 | 0.00 | 0.00 | 0.00 | 74 | 1018.0 |
| 20260831044020 | 26 | 0 | 0.0 | 0.0 | 0.00 | 0.00 | 0.00 | 74 | 1018.1 |
| 20260831043519 | 26 | 0 | 0.0 | 0.0 | 0.00 | 0.00 | 0.00 | 74 | 1018.1 |
| 20260831043042 | 26 | 0 | 0.0 | 0.0 | 0.00 | 0.00 | 0.00 | 74 | 1018.1 |
| 20260831042523 | 27 | 0 | 0.0 | 0.0 | 0.00 | 0.00 | 0.00 | 74 | 1018.1 |
| 20260831042024 | 27 | 0 | 0.0 | 0.0 | 0.00 | 0.00 | 0.00 | 74 | 1018.2 |
| 20260831041600 | 27 | 0 | 0.0 | 0.0 | 0.00 | 0.00 | 0.00 | 74 | 1018.2 |
| 20260831041024 | 27 | 0 | 0.0 | 0.0 | 0.00 | 0.00 | 0.00 | 74 | 1018.2 |